Flag for Germany Past Weather in Neuburg an der Donau, Bavaria, Germany — Yesterday and Last 2 Weeks

Now
68 °F

Mild.


Feels Like: 68 °F
Forecast: 57 / 86 °F
Wind: 3 mph from North

Location: Neuburg / Donau

Current Time: Aug 27, 2016 at 10:23:24 AM

Latest Report: Aug 27, 2016 at 9:20 AM


Visibility: 6 mi

Pressure: 30.12 "Hg

Humidity: 78%

Dew Point: 61 °F

Location of Neuburg an der DonauLocation

Past Weather in Neuburg an der Donau — Graph

°F

Neuburg an der Donau Temperature Yesterday

Maximum temperature yesterday: 88 °F (at 5:20 PM)
Minimum temperature yesterday: 52 °F (at 7:20 AM)
Average temperature yesterday: 70 °F

High & Low Weather Summary for the Past Weeks

 TemperatureHumidityPressure
High88 °F (Aug 26, 5:20 PM)100% (Aug 13, 4:20 AM)30.42 "Hg (Aug 13, 4:20 AM)
Low48 °F (Aug 18, 6:20 AM)29% (Aug 25, 4:20 PM)29.80 "Hg (Aug 18, 3:20 PM)
Average66 °F70%30.12 "Hg
* Reported Aug 12 8:20 AM — Aug 27 8:20 AM, Neuburg an der Donau, Weather by CustomWeather, © 2016

Note: Actual official high and low records may vary slightly from our data, if they occured in-between our weather recording intervals... More about our weather records

Advertising

Neuburg an der Donau Weather History for the Previous 24 Hours

Scroll right to see more
 ConditionsComfort  
Time TempWeatherWind HumidityBarometerVisibility
8:20 AM
Sat, Aug 27
64 °FMild.3 mph88%30.12 "Hg5 mi
7:20 AM59 °FFog.2 mph94%30.12 "Hg4 mi
7:04 AM57 °FFog.1 mph94%30.12 "Hg3 mi
6:20 AM59 °FFog.No wind94%30.12 "Hg2 mi
6:01 AM57 °FFog.2 mph100%30.12 "Hg2 mi
5:20 AM59 °FCool.No wind100%30.12 "HgN/A
4:20 AM59 °FCool.1 mph94%30.12 "HgN/A
3:20 AM61 °FCool.No wind94%30.12 "HgN/A
2:20 AM63 °FMild.No wind88%30.12 "HgN/A
1:20 AM64 °FMild.2 mph83%30.12 "HgN/A
12:20 AM66 °FMild.2 mph78%30.12 "HgN/A
11:20 PM
Fri, Aug 26
66 °FMild.3 mph78%30.12 "HgN/A
10:20 PM68 °FMild.3 mph78%30.09 "HgN/A
9:20 PM72 °FPassing clouds.1 mph69%30.09 "HgN/A
8:20 PM79 °FPassing clouds.5 mph51%30.09 "HgN/A
7:20 PM84 °FWarm.3 mph45%30.07 "HgN/A
6:20 PM86 °FPassing clouds.3 mph43%30.07 "HgN/A
5:20 PM88 °FPassing clouds.2 mph38%30.07 "HgN/A
4:20 PM86 °FPassing clouds.2 mph40%30.09 "HgN/A
3:20 PM86 °FWarm.3 mph43%30.09 "HgN/A
2:20 PM82 °FWarm.3 mph48%30.09 "HgN/A
1:20 PM81 °FWarm.3 mph51%30.09 "HgN/A
12:20 PM77 °FWarm.3 mph57%30.09 "HgN/A
12:02 PM75 °FMild.5 mph57%30.09 "HgN/A
11:20 AM73 °FMild.3 mph65%30.12 "HgN/A
10:20 AM70 °FMild.1 mph64%30.12 "HgN/A
Weather by CustomWeather, © 2016

See weather overviewHow to use our weather pages